Weather History for Grand Marais, MN

Change the Weather History Date:

Wednesday, February 6, 2013

  Actual Average (KCKC) Record (KCKC)
Temperature  
Mean Temperature 12 °F -  
Max Temperature 19 °F 20 °F 66 °F (1997)
Min Temperature 6 °F 4 °F -18 °F (2007)
Degree Days  
Heating Degree Days 52    
Moisture  
Dew Point 5 °F    
Average Humidity 69    
Maximum Humidity 78    
Minimum Humidity 55    
Precipitation  
Precipitation 0.05 in - - ()
Sea Level Pressure  
Sea Level Pressure 30.19 in    
Wind  
Wind Speed 5 mph (NE)    
Max Wind Speed 13 mph    
Max Gust Speed 18 mph    
Averages and records for this station are not official NWS values.
T = Trace of Precipitation, MM = Missing Value Source: NWS Daily Summary

Daily Weather History Graph

Daily Weather History Graph

Search for Another Location

Airport:

Trip Planner

Search our weather history database for the weather conditions in past years. The results will help you decide how hot, cold, wet, or windy it might be!

Date:

Astronomy

Feb. 06, 2013 Rise Set
Actual Time 7:20 AM CST 5:10 PM CST
Civil Twilight 6:48 AM CST 5:43 PM CST
Nautical Twilight 6:11 AM CST 6:19 PM CST
Astronomical Twilight 5:35 AM CST 6:55 PM CST
Moon 4:13 AM CST (2/6) 1:20 PM CST (2/6)
Length of Visible Light 10h 54m
Length of Day
9h 49m
Waning Crescent, 17% of the Moon is Illuminated
Feb 6
Waning Crescent
Feb 10
New
Feb 17
First Quarter
Feb 25
Full
Mar 4
Last Quarter

Hourly Weather History & Observations

Time (CST) Temp. Windchill Dew Point Humidity Pressure Visibility Wind Dir Wind Speed Gust Speed Precip Events Conditions
12:56 AM 6.1 °F - -5.1 °F 60% 30.14 in - Calm Calm - N/A   Unknown
1:56 AM 8.1 °F - -5.1 °F 55% 30.16 in - Calm Calm - N/A   Unknown
2:56 AM 7.0 °F - -4.0 °F 61% 30.16 in - Calm Calm - N/A   Unknown
3:56 AM 8.1 °F 1.4 °F -5.1 °F 55% 30.15 in - NNW 3.5 mph - N/A   Unknown
4:56 AM 9.0 °F - -2.9 °F 59% 30.16 in - Calm Calm - N/A   Unknown
5:56 AM 10.0 °F 3.6 °F -0.9 °F 61% 30.17 in - North 3.5 mph - N/A   Unknown
6:56 AM 10.9 °F 4.7 °F 1.0 °F 64% 30.18 in - NNW 3.5 mph - N/A   Unknown
7:56 AM 12.0 °F 5.9 °F 1.9 °F 64% 30.19 in - NNE 3.5 mph - N/A   Unknown
8:56 AM 12.9 °F 5.2 °F 3.0 °F 65% 30.21 in - NE 4.6 mph - N/A   Unknown
9:56 AM 12.9 °F 2.6 °F 6.1 °F 74% 30.21 in - ENE 6.9 mph - N/A   Unknown
10:56 AM 14.0 °F 3.9 °F 7.0 °F 74% 30.22 in - NE 6.9 mph - N/A   Unknown
11:56 AM 16.0 °F 5.3 °F 8.1 °F 71% 30.21 in - NE 8.1 mph - N/A   Unknown
12:56 PM 16.0 °F 5.3 °F 8.1 °F 71% 30.20 in - ENE 8.1 mph 18.4 mph N/A   Unknown
1:56 PM 17.1 °F 5.0 °F 10.0 °F 74% 30.21 in - NE 10.4 mph 18.4 mph N/A   Unknown
2:56 PM 18.0 °F 6.1 °F 10.0 °F 71% 30.19 in - ENE 10.4 mph 18.4 mph N/A   Unknown
3:56 PM 17.1 °F 3.6 °F 10.9 °F 77% 30.19 in - ENE 12.7 mph - 0.01 in   Unknown
4:56 PM 18.0 °F 5.4 °F 10.9 °F 74% 30.18 in - NE 11.5 mph 17.3 mph 0.01 in   Unknown
5:56 PM 18.0 °F 5.4 °F 10.9 °F 74% 30.19 in - NE 11.5 mph - N/A   Unknown
6:56 PM 18.0 °F 5.4 °F 10.9 °F 74% 30.20 in - NE 11.5 mph - 0.01 in   Unknown
7:56 PM 18.0 °F 6.9 °F 12.0 °F 78% 30.21 in - ENE 9.2 mph 17.3 mph 0.01 in   Unknown
8:56 PM 19.0 °F 6.8 °F 12.0 °F 74% 30.22 in - ENE 11.5 mph - N/A   Unknown
9:56 PM 18.0 °F 5.4 °F 12.0 °F 78% 30.23 in - ENE 11.5 mph - N/A   Unknown
10:56 PM 18.0 °F 6.9 °F 10.0 °F 71% 30.23 in - NE 9.2 mph - 0.01 in   Unknown
11:56 PM 18.0 °F 6.9 °F 10.0 °F 71% 30.24 in - NE 9.2 mph - N/A   Unknown